Corpus Christi, TX

6:43 PM CST on February 19, 2018 (GMT -0600)
Corpus Christi International

Weather History for KCRP - January, 2012

Change the Weather History Date:

Tuesday, January 17, 2012

  Actual Average Record
Temperature  
Mean Temperature 72 °F 57 °F  
Max Temperature 85 °F 67 °F 86 °F (1936)
Min Temperature 59 °F 47 °F 23 °F (1930)
Degree Days  
Heating Degree Days 0 9  
Month to date heating degree days 109 153  
Since 1 July heating degree days 422 504  
Cooling Degree Days 7 1  
Month to date cooling degree days 20 17  
Year to date cooling degree days 20 17  
Growing Degree Days 21 (Base 50)    
Moisture  
Dew Point 60 °F    
Average Humidity 74    
Maximum Humidity 100    
Minimum Humidity 48    
Precipitation  
Precipitation 0.00 in 0.04 in 2.33 in (1992)
Month to date precipitation 0.01 0.85  
Year to date precipitation 0.01 0.85  
Snow  
Snow 0.00 in - - ()
Month to date snowfall 0.0  
Since 1 July snowfall 0.0  
Snow Depth 0.00 in    
Sea Level Pressure  
Sea Level Pressure 30.05 in    
Wind  
Wind Speed 11 mph (SE)    
Max Wind Speed 28 mph    
Max Gust Speed 33 mph    
Visibility 9 miles    
Events      
T = Trace of Precipitation, MM = Missing Value Source: NWS Daily Summary

Daily Weather History Graph

Daily Weather History Graph

Search for Another Location

Airport or City:

Trip Planner

Search our weather history database for the weather conditions in past years. The results will help you decide how hot, cold, wet, or windy it might be!

Date:

Astronomy

Jan. 17, 2012 Rise Set
Actual Time 7:21 AM CST 5:58 PM CST
Civil Twilight 6:56 AM CST 6:23 PM CST
Nautical Twilight 6:28 AM CST 6:52 PM CST
Astronomical Twilight 5:59 AM CST 7:20 PM CST
Moon 1:46 AM CST (1/17) 12:51 PM CST (1/17)
Length of Visible Light 11h 26m
Length of Day
10h 36m
Waning Crescent, 35% of the Moon is Illuminated
Jan 17
Waning Crescent
Jan 23
New
Jan 30
First Quarter
Feb 7
Full
Feb 14
Last Quarter

Hourly Weather History & Observations

Time (CST) Temp. Heat Index Dew Point Humidity Pressure Visibility Wind Dir Wind Speed Gust Speed Precip Events Conditions
12:00 AM 68.0 °F - 64.4 °F 88% 30.00 in 10.0 mi South 11.5 mph - N/A   Scattered Clouds
12:04 AM 68.0 °F - 64.4 °F 88% 30.01 in 10.0 mi South 10.4 mph - N/A   Mostly Cloudy
12:51 AM 68.0 °F - 64.9 °F 90% 29.99 in 10.0 mi South 10.4 mph - N/A   Mostly Cloudy
1:01 AM 68.0 °F - 64.4 °F 88% 29.99 in 10.0 mi South 6.9 mph - N/A   Scattered Clouds
1:51 AM 66.9 °F - 64.0 °F 90% 29.98 in 10.0 mi SSE 11.5 mph - N/A   Mostly Cloudy
2:51 AM 68.0 °F - 64.9 °F 90% 29.98 in 10.0 mi South 9.2 mph - N/A   Overcast
3:47 AM 66.2 °F - 64.4 °F 94% 29.98 in 10.0 mi South 6.9 mph - N/A   Scattered Clouds
3:51 AM 66.9 °F - 64.9 °F 93% 29.97 in 10.0 mi South 6.9 mph - N/A   Scattered Clouds
4:51 AM 64.9 °F - 64.0 °F 97% 29.98 in 10.0 mi SSE 6.9 mph - N/A   Partly Cloudy
5:51 AM 66.0 °F - 64.0 °F 93% 29.99 in 10.0 mi South 9.2 mph - N/A   Partly Cloudy
6:51 AM 66.0 °F - 64.0 °F 93% 29.99 in 10.0 mi South 6.9 mph - N/A   Partly Cloudy
7:32 AM 66.2 °F - 64.4 °F 94% 30.00 in 2.0 mi SSE 9.2 mph - N/A   Partly Cloudy
7:51 AM 66.0 °F - 64.9 °F 96% 30.01 in 2.0 mi South 8.1 mph - N/A   Partly Cloudy
8:17 AM 66.2 °F - 64.4 °F 94% 30.01 in 4.0 mi South 5.8 mph - N/A   Partly Cloudy
8:43 AM 69.8 °F - 66.2 °F 88% 30.02 in 5.0 mi South 15.0 mph - N/A   Mostly Cloudy
8:51 AM 71.1 °F - 66.0 °F 84% 30.02 in 5.0 mi SSW 19.6 mph 26.5 mph N/A   Haze
9:51 AM 73.0 °F - 66.0 °F 79% 30.05 in 10.0 mi SSW 16.1 mph - N/A   Mostly Cloudy
10:13 AM 73.4 °F - 66.2 °F 78% 30.07 in 10.0 mi SSW 12.7 mph - N/A   Scattered Clouds
10:51 AM 75.0 °F - 66.0 °F 73% 30.08 in 10.0 mi West 10.4 mph - N/A   Mostly Cloudy
11:43 AM 77.0 °F - 66.2 °F 69% 30.07 in 10.0 mi WNW 9.2 mph - N/A   Scattered Clouds
11:51 AM 78.1 °F - 66.0 °F 66% 30.06 in 10.0 mi West 9.2 mph - N/A   Scattered Clouds
12:51 PM 79.0 °F - 64.9 °F 62% 30.03 in 10.0 mi NW 8.1 mph - N/A   Scattered Clouds
1:51 PM 80.1 °F 81.7 °F 64.0 °F 58% 30.00 in 10.0 mi Calm Calm - N/A   Partly Cloudy
2:51 PM 82.9 °F 84.0 °F 63.0 °F 51% 30.00 in 10.0 mi NW 5.8 mph 16.1 mph N/A   Scattered Clouds
3:51 PM 82.0 °F 83.0 °F 62.1 °F 51% 30.01 in 10.0 mi North 13.8 mph - N/A   Scattered Clouds
4:49 PM 78.1 °F - 64.9 °F 64% 30.02 in 10.0 mi ENE 12.7 mph - N/A   Partly Cloudy
4:51 PM 78.1 °F - 64.9 °F 64% 30.02 in 10.0 mi ENE 11.5 mph - N/A   Partly Cloudy
4:53 PM 78.8 °F - 64.4 °F 61% 30.02 in 10.0 mi ENE 10.4 mph - N/A   Partly Cloudy
5:51 PM 73.9 °F - 64.9 °F 73% 30.04 in 10.0 mi East 6.9 mph - N/A   Partly Cloudy
6:51 PM 71.1 °F - 64.9 °F 81% 30.06 in 10.0 mi East 8.1 mph - N/A   Partly Cloudy
7:51 PM 70.0 °F - 64.9 °F 84% 30.09 in 10.0 mi East 4.6 mph - N/A   Scattered Clouds
8:15 PM 69.8 °F - 64.4 °F 83% 30.11 in 10.0 mi NNE 15.0 mph 20.7 mph N/A   Mostly Cloudy
8:51 PM 68.0 °F - 50.0 °F 52% 30.12 in 10.0 mi NNE 20.7 mph 29.9 mph N/A   Mostly Cloudy
9:51 PM 64.0 °F - 44.1 °F 48% 30.14 in 10.0 mi NNE 23.0 mph 32.2 mph N/A   Mostly Cloudy
10:17 PM 64.4 °F - 44.6 °F 49% 30.15 in 10.0 mi NNE 21.9 mph 29.9 mph N/A   Mostly Cloudy
10:47 PM 62.6 °F - 42.8 °F 48% 30.16 in 10.0 mi NNE 23.0 mph - N/A   Scattered Clouds
10:51 PM 63.0 °F - 42.1 °F 46% 30.16 in 10.0 mi NNE 25.3 mph - N/A   Mostly Cloudy
11:04 PM 62.6 °F - 42.8 °F 48% 30.17 in 10.0 mi NNE 18.4 mph - N/A   Mostly Cloudy
11:28 PM 60.8 °F - 39.2 °F 45% 30.18 in 10.0 mi NNE 25.3 mph 29.9 mph N/A   Mostly Cloudy
11:51 PM 59.0 °F - 39.0 °F 48% 30.19 in 10.0 mi NNE 24.2 mph 32.2 mph N/A   Overcast